1491415200.32,33423,14.88,73328.3,-2.31,-3.55,-3.59,0,*59
1491415201.59,33424,14.81,73326.8,-2.33,-3.51,-3.63,0,*51
1491415202.84,33425,14.81,73326.3,-2.31,-3.55,-3.59,0,*5F
1491415204.09,33426,14.81,73324.3,-2.31,-3.55,-3.59,0,*5C
1491415205.34,33427,14.81,73326.0,-2.29,-3.59,-3.79,0,*5A
1491415206.6,33428,14.81,73326.3,-2.29,-3.67,-3.71,0,*50
1491415207.87,33429,14.81,73326.8,-2.29,-3.59,-3.67,0,*5B
1491415209.12,33430,14.81,73326.5,-2.27,-3.47,-3.63,0,*56
1491415210.38,33431,14.81,73324.3,-2.29,-3.55,-3.67,0,*5E
1491415211.62,33432,14.81,73324.5,-2.27,-3.55,-3.67,0,*53
1491415212.89,33433,14.81,73324.0,-2.29,-3.59,-3.67,0,*50
1491415214.13,33434,14.81,73322.5,-2.27,-3.43,-3.55,0,*53
1491415215.4,33435,14.81,73324.5,-2.29,-3.55,-3.59,0,*57
1491415216.67,33436,14.81,73326.3,-2.29,-3.55,-3.67,0,*59
1491415217.94,33437,14.81,73320.8,-2.29,-3.47,-3.59,0,*56
1491415219.21,33438,14.81,73324.3,-2.29,-3.55,-3.59,0,*5A
1491415220.48,33439,14.81,73322.3,-2.29,-3.67,-3.67,0,*57
1491415221.73,33440,14.81,73324.8,-2.29,-3.67,-3.79,0,*56
1491415222.98,33441,14.81,73328.0,-2.29,-3.71,-3.79,0,*50
1491415224.24,33442,14.81,73324.3,-2.29,-3.67,-3.67,0,*5B
1491415225.48,33443,14.81,73324.5,-2.27,-3.55,-3.63,0,*51
1491415226.75,33444,14.81,73324.3,-2.29,-3.67,-3.71,0,*5A
1491415228.0,33445,14.81,73326.0,-2.29,-3.59,-3.79,0,*5E
1491415229.25,33446,14.81,73326.8,-2.29,-3.71,-3.79,0,*57
1491415230.49,33447,14.81,73326.0,-2.29,-3.71,-3.83,0,*53
1491415231.72,33448,14.81,73326.3,-2.29,-3.79,-3.83,0,*54
1491415232.93,33449,14.81,73326.8,-2.27,-3.75,-3.79,0,*52
1491415234.16,33450,14.81,73326.8,-2.29,-3.79,-3.83,0,*5D
1491415235.37,33451,14.81,73324.8,-2.27,-3.75,-3.87,0,*5A
1491415236.6,33452,14.81,73322.3,-2.29,-3.91,-3.95,0,*5E
1491415237.83,33453,14.81,73326.8,-2.29,-3.83,-3.95,0,*5C
1491415239.06,33454,14.81,73322.8,-2.29,-3.83,-3.91,0,*5F
1491415240.29,33455,14.81,73324.5,-2.29,-3.83,-3.95,0,*5A
1491415241.52,33456,14.81,73326.8,-2.29,-3.83,-3.95,0,*59
1491415242.75,33457,14.81,73326.3,-2.29,-3.83,-3.83,0,*5F
1491415243.98,33458,14.81,73324.5,-2.29,-3.83,-3.91,0,*53
1491415245.21,33459,14.81,73326.0,-2.29,-3.83,-3.83,0,*51
1491415246.44,33460,14.81,73324.3,-2.29,-3.83,-3.83,0,*5B
1491415247.64,33461,14.81,73322.0,-2.27,-3.79,-3.87,0,*55
1491415248.87,33462,14.81,73320.5,-2.29,-3.83,-3.83,0,*59
1491415250.1,33463,14.81,73324.5,-2.29,-3.79,-3.79,0,*58
1491415251.37,33464,14.81,73324.8,-2.29,-3.71,-3.71,0,*5F
1491415252.62,33465,14.81,73324.0,-2.29,-3.67,-3.79,0,*51
1491415253.88,33466,14.81,73324.0,-2.29,-3.71,-3.71,0,*5D
1491415255.13,33467,14.81,73326.5,-2.29,-3.79,-3.71,0,*54
1491415256.34,33468,14.81,73324.3,-2.27,-3.75,-3.75,0,*5D
1491415257.59,33469,14.81,73326.5,-2.29,-3.71,-3.79,0,*5A
1491415258.81,33470,14.81,73324.8,-2.27,-3.67,-3.75,0,*57
1491415260.08,33471,14.81,73322.3,-2.29,-3.71,-3.71,0,*5B
1491415261.32,33472,14.81,73322.5,-2.27,-3.63,-3.67,0,*52
1491415262.59,33473,14.81,73322.5,-2.29,-3.59,-3.67,0,*54
1491415263.86,33474,14.81,73320.3,-2.29,-3.67,-3.67,0,*5E
1491415265.12,33475,14.81,73320.8,-2.29,-3.71,-3.71,0,*5F
1491415266.37,33476,14.81,73322.5,-2.31,-3.67,-3.59,0,*58
1491415267.64,33477,14.81,73322.5,-2.29,-3.59,-3.71,0,*57
1491415268.91,33478,14.81,73322.8,-2.29,-3.67,-3.71,0,*55
1491415270.15,33479,14.81,73326.0,-2.27,-3.55,-3.67,0,*5C
1491415271.4,33480,14.81,73324.0,-2.29,-3.59,-3.79,0,*57
1491415272.67,33481,14.81,73320.3,-2.29,-3.67,-3.71,0,*53
1491415273.9,33482,14.81,73322.0,-2.27,-3.55,-3.55,0,*59
1491415275.15,33483,14.81,73326.8,-2.29,-3.67,-3.79,0,*59
1491415276.4,33484,14.81,73326.5,-2.29,-3.71,-3.79,0,*59
1491415277.65,33485,14.81,73326.0,-2.29,-3.67,-3.79,0,*5F
1491415278.88,33486,14.81,73322.8,-2.29,-3.79,-3.79,0,*53
1491415280.13,33487,14.81,73322.8,-2.29,-3.71,-3.79,0,*5A
1491415281.37,33488,14.81,73320.3,-2.27,-3.67,-3.67,0,*53
1491415282.64,33489,14.81,73326.3,-2.29,-3.59,-3.71,0,*56
1491415283.91,33490,14.81,73326.5,-2.29,-3.55,-3.67,0,*55
1491415285.16,33491,14.81,73324.0,-2.29,-3.59,-3.79,0,*57
1491415286.42,33492,14.81,73322.3,-2.29,-3.67,-3.71,0,*51
1491415287.67,33493,14.81,73322.5,-2.27,-3.63,-3.67,0,*5D
1491415288.94,33494,14.81,73322.8,-2.29,-3.59,-3.71,0,*5A
1491415290.21,33495,14.81,73322.3,-2.29,-3.59,-3.67,0,*5C
1491415291.47,33496,14.81,73326.5,-2.29,-3.71,-3.71,0,*52
1491415292.69,33497,14.81,73322.5,-2.27,-3.71,-3.75,0,*59
1491415293.94,33498,14.81,73324.5,-2.29,-3.71,-3.79,0,*54
1491415295.21,33499,14.81,73324.5,-2.29,-3.67,-3.67,0,*5D
1491415296.47,33500,14.81,73326.5,-2.29,-3.67,-3.71,0,*5B
1491415297.75,33501,14.81,73326.5,-2.29,-3.47,-3.59,0,*52
1491415298.99,33502,14.81,73324.3,-2.31,-3.55,-3.55,0,*57
1491415300.26,33503,14.81,73324.5,-2.29,-3.47,-3.47,0,*5F
1491415301.53,33504,14.81,73324.5,-2.29,-3.47,-3.55,0,*5B
1491415302.79,33505,14.81,73326.8,-2.29,-3.47,-3.67,0,*5B
1491415304.06,33506,14.81,73326.0,-2.29,-3.47,-3.67,0,*58
1491415305.33,33507,14.81,73324.5,-2.29,-3.51,-3.63,0,*5A
1491415306.57,33508,14.81,73324.0,-2.27,-3.43,-3.63,0,*58
1491415307.84,33509,14.81,73324.5,-2.29,-3.59,-3.63,0,*5C
1491415309.08,33510,14.81,73324.3,-2.27,-3.55,-3.63,0,*56
1491415310.31,33511,14.81,73324.0,-2.27,-3.63,-3.75,0,*55
1491415311.54,33512,14.81,73326.5,-2.29,-3.79,-3.79,0,*5F
1491415312.81,33513,14.81,73326.5,-2.29,-3.59,-3.67,0,*53
1491415314.08,33514,14.81,73324.3,-2.29,-3.59,-3.67,0,*54
1491415315.35,33515,14.81,73324.3,-2.29,-3.59,-3.67,0,*55
1491415316.62,33516,14.81,73328.5,-2.29,-3.55,-3.59,0,*57
1491415317.88,33517,14.81,73324.5,-2.29,-3.67,-3.67,0,*5A
1491415319.15,33518,14.81,73324.0,-2.29,-3.59,-3.71,0,*5F
1491415320.42,33519,14.81,73326.5,-2.29,-3.59,-3.71,0,*5E
1491415321.69,33520,14.81,73326.3,-2.29,-3.55,-3.59,0,*52
1491415322.96,33521,14.81,73326.8,-2.29,-3.55,-3.59,0,*53
1491415324.24,33522,14.81,73322.3,-2.29,-3.47,-3.59,0,*53
1491415325.48,33523,14.81,73324.8,-2.27,-3.55,-3.63,0,*56
1491415326.72,33524,14.81,73326.3,-2.27,-3.51,-3.63,0,*55
1491415327.99,33525,14.81,73324.8,-2.29,-3.55,-3.67,0,*5A
1491415329.22,33526,14.81,73324.0,-2.27,-3.63,-3.75,0,*51
1491415330.46,33527,14.81,73326.0,-2.29,-3.71,-3.79,0,*51
1491415331.73,33528,14.81,73326.0,-2.29,-3.71,-3.71,0,*56
1491415332.99,33529,14.81,73326.3,-2.29,-3.67,-3.71,0,*50
1491415334.26,33530,14.81,73326.5,-2.29,-3.67,-3.71,0,*58
1491415335.51,33531,14.81,73326.5,-2.29,-3.71,-3.79,0,*56
1491415336.77,33532,14.81,73326.8,-2.29,-3.67,-3.71,0,*5A
1491415338.01,33533,14.81,73324.8,-2.27,-3.67,-3.67,0,*52
1491415339.28,33534,14.81,73326.3,-2.29,-3.71,-3.71,0,*5B
1491415340.52,33535,14.81,73326.5,-2.27,-3.63,-3.67,0,*50
1491415341.77,33536,14.81,73326.8,-2.27,-3.63,-3.67,0,*53
1491415343.02,33537,14.81,73326.0,-2.29,-3.59,-3.79,0,*5A
1491415344.27,33538,14.81,73326.0,-2.29,-3.67,-3.79,0,*58
1491415345.53,33539,14.81,73324.5,-2.29,-3.67,-3.71,0,*51
1491415346.78,33540,14.81,73326.0,-2.29,-3.71,-3.91,0,*56
1491415348.01,33541,14.81,73326.8,-2.29,-3.79,-3.79,0,*59
1491415349.26,33542,14.81,73326.0,-2.29,-3.71,-3.79,0,*52
1491415350.53,33543,14.81,73326.0,-2.29,-3.71,-3.71,0,*5B
1491415351.77,33544,14.81,73324.8,-2.27,-3.63,-3.67,0,*56
1491415353.04,33545,14.81,73326.0,-2.29,-3.67,-3.71,0,*5A
1491415354.31,33546,14.81,73326.0,-2.29,-3.59,-3.71,0,*54
1491415355.57,33547,14.81,73326.8,-2.29,-3.59,-3.67,0,*52
1491415356.83,33548,14.81,73328.3,-2.29,-3.59,-3.79,0,*52
1491415358.1,33549,14.81,73324.0,-2.29,-3.59,-3.67,0,*5C
1491415359.36,33550,14.81,73324.3,-2.29,-3.67,-3.67,0,*59
1491415360.6,33551,14.81,73324.8,-2.27,-3.63,-3.67,0,*52
1491415361.85,33552,14.81,73326.0,-2.29,-3.67,-3.79,0,*54
1491415363.12,33553,14.81,73326.0,-2.29,-3.67,-3.67,0,*5A
1491415364.36,33554,14.81,73320.3,-2.27,-3.55,-3.63,0,*56
1491415365.61,33555,14.81,73326.5,-2.29,-3.67,-3.79,0,*53
1491415366.84,33556,14.81,73326.0,-2.29,-3.79,-3.83,0,*5A
1491415368.07,33557,14.81,73326.3,-2.29,-3.79,-3.83,0,*5B
1491415369.32,33558,14.81,73324.5,-2.29,-3.71,-3.79,0,*59
1491415370.56,33559,14.81,73328.0,-2.29,-3.71,-3.79,0,*58
1491415371.79,33560,14.81,73324.8,-2.29,-3.79,-3.83,0,*5F
1491415373.02,33561,14.81,73326.8,-2.29,-3.79,-3.83,0,*5E
1491415374.25,33562,14.81,73322.0,-2.29,-3.79,-3.83,0,*5D
1491415375.52,33563,14.81,73328.3,-2.29,-3.71,-3.71,0,*59
1491415376.79,33564,14.81,73326.3,-2.29,-3.59,-3.67,0,*53
1491415378.05,33565,14.81,73326.0,-2.29,-3.59,-3.67,0,*52
1491415379.3,33566,14.81,73322.3,-2.31,-3.55,-3.67,0,*54
1491415380.57,33567,14.81,73324.3,-2.29,-3.59,-3.67,0,*50
1491415381.84,33568,14.81,73320.5,-2.29,-3.59,-3.67,0,*5F
1491415383.11,33569,14.81,73324.0,-2.29,-3.59,-3.67,0,*5E
1491415384.37,33570,14.81,73324.3,-2.29,-3.55,-3.67,0,*5A
1491415385.64,33571,14.81,73326.5,-2.29,-3.55,-3.67,0,*5B
1491415386.9,33572,14.81,73324.3,-2.29,-3.55,-3.71,0,*5F
1491415388.17,33573,14.81,73324.3,-2.29,-3.47,-3.55,0,*5B
1491415389.43,33574,14.81,73324.8,-2.29,-3.47,-3.55,0,*5C
1491415390.7,33575,14.81,73326.5,-2.29,-3.47,-3.47,0,*5E
1491415391.97,33576,14.81,73324.0,-2.29,-3.47,-3.47,0,*5D
1491415393.23,33577,14.81,73324.0,-2.29,-3.55,-3.55,0,*5C
1491415394.48,33578,14.81,73324.8,-2.27,-3.43,-3.43,0,*5D
1491415395.74,33579,14.81,73326.0,-2.29,-3.47,-3.47,0,*52
1491415396.99,33580,14.81,73324.0,-2.27,-3.43,-3.51,0,*59
1491415398.25,33581,14.81,73320.0,-2.29,-3.47,-3.47,0,*55
1491415399.52,33582,14.81,73322.8,-2.29,-3.47,-3.55,0,*55
1491415400.77,33583,14.81,73326.3,-2.27,-3.51,-3.55,0,*5D
1491415402.03,33584,14.81,73324.8,-2.29,-3.55,-3.71,0,*56
1491415403.27,33585,14.81,73322.8,-2.27,-3.51,-3.63,0,*5E
1491415404.54,33586,14.81,73326.8,-2.29,-3.59,-3.67,0,*5F
1491415405.77,33587,14.81,73326.8,-2.29,-3.79,-3.79,0,*53
1491415407.02,33588,14.81,73322.8,-2.29,-3.67,-3.79,0,*53
1491415408.29,33589,14.81,73322.3,-2.29,-3.67,-3.71,0,*5A
1491415409.56,33590,14.81,73324.5,-2.29,-3.59,-3.67,0,*58
1491415410.8,33591,14.81,73322.5,-2.27,-3.51,-3.55,0,*5E
1491415412.07,33592,14.81,73326.3,-2.29,-3.55,-3.67,0,*56
1491415413.31,33593,14.81,73324.5,-2.27,-3.51,-3.55,0,*5C
1491415414.58,33594,14.81,73324.3,-2.29,-3.59,-3.67,0,*5C
1491415415.83,33595,14.81,73326.3,-2.29,-3.67,-3.79,0,*5F
1491415417.08,33596,14.81,73326.8,-2.29,-3.71,-3.75,0,*57
1491415418.34,33597,14.81,73324.0,-2.29,-3.67,-3.71,0,*55
1491415419.59,33598,14.81,73322.3,-2.29,-3.79,-3.71,0,*55
1491415420.82,33599,14.81,73326.5,-2.29,-3.79,-3.79,0,*5C
1491415422.05,33600,14.81,73326.8,-2.27,-3.75,-3.63,0,*56
1491415423.28,33601,14.81,73322.5,-2.29,-3.79,-3.79,0,*5E
1491415424.51,33602,14.81,73318.0,-2.29,-3.79,-3.79,0,*5D
1491415425.74,33603,14.81,73320.0,-2.29,-3.79,-3.79,0,*5C
1491415426.95,33604,14.81,73322.8,-2.27,-3.75,-3.79,0,*59
1491415428.18,33605,14.81,73322.8,-2.29,-3.79,-3.83,0,*5F
1491415429.41,33606,14.81,73322.8,-2.29,-3.79,-3.79,0,*59
1491415430.68,33607,14.81,73324.0,-2.29,-3.71,-3.71,0,*58
1491415431.94,33608,14.81,73320.3,-2.29,-3.67,-3.71,0,*50
1491415433.21,33609,14.81,73324.5,-2.29,-3.67,-3.71,0,*51
1491415434.48,33610,14.81,73326.0,-2.29,-3.59,-3.71,0,*54
1491415435.75,33611,14.81,73322.8,-2.29,-3.59,-3.71,0,*55
1491415436.99,33612,14.81,73322.5,-2.31,-3.59,-3.67,0,*58
1491415438.24,33613,14.81,73324.5,-2.31,-3.59,-3.67,0,*59
1491415439.47,33614,14.81,73320.5,-2.29,-3.79,-3.79,0,*5A
1491415440.71,33615,14.81,73320.8,-2.29,-3.79,-3.91,0,*5D
1491415441.95,33616,14.81,73324.8,-2.29,-3.71,-3.83,0,*55
1491415443.19,33617,14.81,73322.5,-2.29,-3.79,-3.91,0,*5F
1491415444.42,33618,14.81,73322.5,-2.29,-3.79,-3.83,0,*53
1491415445.65,33619,14.81,73324.8,-2.29,-3.79,-3.79,0,*57
1491415446.9,33620,14.81,73326.8,-2.29,-3.71,-3.79,0,*55
1491415448.12,33621,14.81,73322.5,-2.29,-3.79,-3.83,0,*59
1491415449.36,33622,14.81,73326.0,-2.29,-3.79,-3.83,0,*5A
1491415450.6,33623,14.81,73326.3,-2.29,-3.79,-3.71,0,*56
1491415451.85,33624,14.81,73326.5,-2.31,-3.71,-3.71,0,*50
1491415453.11,33625,14.81,73324.8,-2.29,-3.67,-3.67,0,*58
1491415454.38,33626,14.81,73330.8,-2.29,-3.67,-3.71,0,*5C
1491415455.61,33627,14.81,73326.5,-2.29,-3.79,-3.79,0,*5A
1491415456.85,33628,14.81,73326.0,-2.31,-3.67,-3.71,0,*5B
1491415458.1,33629,14.81,73320.8,-2.29,-3.79,-3.71,0,*5C
1491415459.35,33630,14.81,73324.3,-2.29,-3.71,-3.79,0,*54
1491415460.58,33631,14.81,73324.0,-2.29,-3.79,-3.79,0,*5D
1491415461.81,33632,14.81,73320.8,-2.29,-3.79,-3.83,0,*5B
1491415463.04,33633,14.81,73324.0,-2.31,-3.71,-3.83,0,*5B
1491415464.25,33634,14.81,73328.3,-2.27,-3.75,-3.75,0,*56
1491415465.48,33635,14.81,73324.3,-2.29,-3.91,-3.83,0,*5A
1491415466.69,33636,14.81,73320.3,-2.31,-3.83,-3.83,0,*53
1491415467.91,33637,14.81,73326.5,-2.31,-3.71,-3.79,0,*5A
1491415469.16,33638,14.81,73324.0,-2.31,-3.71,-3.71,0,*5D
1491415470.37,33639,14.81,73326.0,-2.31,-3.79,-3.79,0,*5C
1491415471.6,33640,14.81,73324.5,-2.31,-3.71,-3.79,0,*5A
1491415472.81,33641,14.81,73324.0,-2.31,-3.79,-3.83,0,*56
1491415474.02,33642,14.81,73326.8,-2.31,-3.79,-3.91,0,*56
1491415475.23,33643,14.81,73326.8,-2.31,-3.79,-3.83,0,*54
1491415476.46,33644,14.81,73324.3,-2.33,-3.95,-3.95,0,*54
1491415477.67,33645,14.81,73326.0,-2.31,-3.83,-3.83,0,*57
1491415478.88,33646,14.81,73320.8,-2.31,-3.83,-3.91,0,*57
1491415480.09,33647,14.81,73326.0,-2.31,-3.83,-3.83,0,*55
1491415481.3,33648,14.81,73324.8,-2.31,-3.83,-3.83,0,*5A
1491415482.52,33649,14.81,73322.0,-2.33,-3.95,-3.95,0,*59
1491415483.73,33650,14.81,73324.3,-2.31,-3.83,-3.83,0,*53
1491415484.94,33651,14.81,73320.3,-2.31,-3.83,-3.83,0,*52
1491415486.15,33652,14.81,73324.8,-2.31,-3.83,-3.83,0,*51
1491415487.38,33653,14.81,73324.3,-2.31,-3.83,-3.71,0,*5D
1491415488.63,33654,14.81,73322.8,-2.33,-3.75,-3.71,0,*51
1491415489.87,33655,14.81,73326.8,-2.31,-3.71,-3.71,0,*56
1491415491.08,33656,14.81,73328.3,-2.31,-3.83,-3.83,0,*55
1491415492.29,33657,14.81,73328.3,-2.31,-3.83,-3.83,0,*54
1491415493.52,33658,14.81,73324.0,-2.31,-3.71,-3.79,0,*53
1491415494.73,33659,14.81,73328.0,-2.31,-3.83,-3.83,0,*5A
1491415495.94,33660,14.81,73324.8,-2.31,-3.79,-3.79,0,*50
1491415497.16,33661,14.81,73326.3,-2.33,-3.87,-3.83,0,*57
1491415498.39,33662,14.81,73324.0,-2.31,-3.79,-3.71,0,*5A
1491415499.64,33663,14.81,73324.3,-2.33,-3.83,-3.71,0,*5C
1491415500.89,33664,14.81,73326.5,-2.33,-3.71,-3.83,0,*5B
1491415502.12,33665,14.81,73322.8,-2.31,-3.71,-3.79,0,*5D
1491415503.34,33666,14.81,73326.5,-2.33,-3.87,-3.83,0,*50
1491415504.59,33667,14.81,73324.0,-2.31,-3.71,-3.71,0,*57
1491415505.84,33668,14.81,73324.8,-2.31,-3.59,-3.59,0,*58
1491415507.11,33669,14.81,73320.3,-2.33,-3.63,-3.63,0,*5B
1491415508.38,33670,14.81,73326.8,-2.33,-3.63,-3.71,0,*50
1491415509.63,33671,14.81,73322.3,-2.31,-3.59,-3.67,0,*5D
1491415510.9,33672,14.81,73324.0,-2.33,-3.63,-3.63,0,*51
1491415512.15,33673,14.81,73324.0,-2.31,-3.55,-3.47,0,*51
1491415513.39,33674,14.81,73326.5,-2.31,-3.59,-3.55,0,*59
1491415514.66,33675,14.81,73324.3,-2.33,-3.63,-3.71,0,*55
1491415515.93,33676,14.81,73326.0,-2.33,-3.71,-3.71,0,*55
1491415517.19,33677,14.81,73320.5,-2.31,-3.59,-3.59,0,*56
1491415518.43,33678,14.81,73322.3,-2.31,-3.59,-3.47,0,*56
1491415519.7,33679,14.81,73320.3,-2.33,-3.63,-3.71,0,*59
1491415520.98,33680,14.81,73324.3,-2.33,-3.63,-3.63,0,*5C
1491415522.24,33681,14.81,73326.3,-2.33,-3.71,-3.71,0,*5D
1491415523.51,33682,14.81,73320.8,-2.33,-3.63,-3.71,0,*5D
1491415524.76,33683,14.81,73326.0,-2.31,-3.59,-3.67,0,*50
1491415526.01,33684,14.81,73322.8,-2.31,-3.67,-3.67,0,*5A
1491415527.25,33685,14.81,73324.5,-2.31,-3.67,-3.67,0,*5B
1491415528.5,33686,14.81,73320.8,-2.31,-3.59,-3.59,0,*58
1491415529.75,33687,14.81,73328.3,-2.31,-3.59,-3.55,0,*55
1491415531.02,33688,14.81,73328.8,-2.33,-3.71,-3.71,0,*54
1491415532.29,33689,14.81,73326.3,-2.33,-3.71,-3.67,0,*52
1491415533.53,33690,14.81,73326.0,-2.31,-3.67,-3.67,0,*5F
1491415534.8,33691,14.81,73324.5,-2.33,-3.71,-3.63,0,*5F
1491415536.07,33692,14.81,73322.8,-2.33,-3.63,-3.63,0,*5F
1491415537.31,33693,14.81,73322.5,-2.31,-3.67,-3.67,0,*5C
1491415538.54,33694,14.81,73322.5,-2.31,-3.71,-3.79,0,*53
1491415539.77,33695,14.81,73322.8,-2.33,-3.83,-3.83,0,*58
1491415541.0,33696,14.81,73322.0,-2.33,-3.83,-3.83,0,*5B
1491415542.22,33697,14.81,73322.8,-2.31,-3.79,-3.79,0,*58
1491415543.47,33698,14.81,73320.5,-2.33,-3.71,-3.75,0,*51
1491415544.74,33699,14.81,73320.3,-2.33,-3.63,-3.71,0,*57
1491415546.01,33700,14.81,73320.5,-2.33,-3.63,-3.63,0,*55
1491415547.27,33701,14.81,73320.8,-2.33,-3.71,-3.63,0,*57
1491415548.55,33702,14.81,73316.5,-2.33,-3.63,-3.71,0,*54
1491415549.77,33703,14.81,73318.3,-2.31,-3.79,-3.71,0,*5C
1491415550.98,33704,14.81,73316.8,-2.31,-3.79,-3.79,0,*53
1491415552.22,33705,14.81,73318.3,-2.33,-3.75,-3.75,0,*50
1491415553.49,33706,14.81,73314.0,-2.33,-3.71,-3.67,0,*54
1491415554.75,33707,14.81,73318.8,-2.33,-3.71,-3.71,0,*52
1491415556.02,33708,14.81,73318.0,-2.33,-3.63,-3.71,0,*5E
1491415557.27,33709,14.81,73316.0,-2.31,-3.71,-3.67,0,*59
1491415558.54,33710,14.81,73318.5,-2.33,-3.63,-3.71,0,*57
1491415559.79,33711,14.81,73318.0,-2.33,-3.75,-3.71,0,*51
1491415561.06,33712,14.81,73316.5,-2.33,-3.63,-3.63,0,*56
1491415562.31,33713,14.81,73318.5,-2.31,-3.59,-3.55,0,*59
1491415563.58,33714,14.81,73318.0,-2.33,-3.59,-3.67,0,*5D
1491415564.83,33715,14.81,73318.0,-2.33,-3.71,-3.75,0,*55
1491415566.06,33716,14.81,73316.3,-2.33,-3.83,-3.75,0,*5B
1491415567.3,33717,14.81,73316.5,-2.33,-3.83,-3.83,0,*53
1491415568.53,33718,14.81,73320.0,-2.33,-3.83,-3.87,0,*58
1491415569.75,33719,14.81,73316.8,-2.33,-3.87,-3.87,0,*5D
1491415570.98,33720,14.81,73314.8,-2.33,-3.87,-3.87,0,*57
1491415572.21,33721,14.81,73316.3,-2.33,-3.75,-3.75,0,*56
1491415573.48,33722,14.81,73316.3,-2.33,-3.63,-3.63,0,*55
1491415574.75,33723,14.81,73316.8,-2.33,-3.63,-3.63,0,*54
1491415576.03,33724,14.81,73316.3,-2.33,-3.59,-3.59,0,*53
1491415577.3,33725,14.81,73314.5,-2.33,-3.47,-3.51,0,*55
1491415578.57,33726,14.81,73312.8,-2.33,-3.63,-3.71,0,*52
1491415579.85,33727,14.81,73314.5,-2.33,-3.71,-3.59,0,*5A
1491415581.12,33728,14.81,73318.0,-2.33,-3.59,-3.59,0,*5F
1491415582.37,33729,14.81,73316.3,-2.31,-3.59,-3.55,0,*50
1491415583.64,33730,14.81,73316.3,-2.33,-3.63,-3.63,0,*56
1491415584.89,33731,14.81,73316.5,-2.33,-3.71,-3.83,0,*5A
1491415586.12,33732,14.81,73318.0,-2.33,-3.83,-3.87,0,*50
1491415587.35,33733,14.81,73318.3,-2.33,-3.83,-3.87,0,*51
1491415588.56,33734,14.81,73314.8,-2.35,-3.83,-3.83,0,*54
1491415589.78,33735,14.81,73320.3,-2.35,-3.71,-3.75,0,*51
1491415590.99,33736,14.81,73318.0,-2.35,-3.83,-3.75,0,*5F
1491415592.22,33737,14.81,73318.3,-2.35,-3.71,-3.75,0,*53
1491415593.44,33738,14.81,73320.0,-2.35,-3.71,-3.75,0,*5C
1491415594.67,33739,14.81,73318.0,-2.35,-3.63,-3.75,0,*5E
1491415595.88,33740,14.81,73318.3,-2.35,-3.83,-3.75,0,*5E
1491415597.11,33741,14.81,73322.0,-2.33,-3.75,-3.83,0,*59
1491415598.35,33742,14.81,73320.5,-2.33,-3.83,-3.75,0,*5A
1491415599.58,33743,14.81,73316.0,-2.33,-3.75,-3.75,0,*52
1491415600.79,33744,14.81,73316.5,-2.35,-3.75,-3.83,0,*5A
1491415602.0,33745,14.81,73316.5,-2.35,-3.75,-3.75,0,*52
1491415603.22,33746,14.81,73322.3,-2.35,-3.75,-3.71,0,*55
1491415604.46,33747,14.81,73318.0,-2.35,-3.71,-3.71,0,*50
1491415605.71,33748,14.81,73318.3,-2.35,-3.63,-3.63,0,*5F
1491415606.92,33749,14.81,73318.3,-2.35,-3.83,-3.75,0,*57
1491415608.14,33750,14.81,73320.0,-2.35,-3.71,-3.75,0,*52
1491415609.38,33751,14.81,73322.3,-2.35,-3.71,-3.63,0,*54
1491415610.61,33752,14.81,73320.0,-2.35,-3.71,-3.75,0,*50
1491415611.82,33753,14.81,73320.5,-2.35,-3.83,-3.83,0,*55
1491415613.05,33754,14.81,73320.3,-2.37,-3.91,-3.87,0,*57
1491415614.27,33755,14.81,73320.5,-2.35,-3.71,-3.75,0,*57
1491415615.5,33756,14.81,73320.3,-2.35,-3.71,-3.75,0,*54
1491415616.74,33757,14.81,73320.0,-2.35,-3.63,-3.63,0,*51
1491415618.0,33758,14.81,73320.3,-2.37,-3.67,-3.75,0,*5F
1491415619.27,33759,14.81,73322.3,-2.33,-3.59,-3.71,0,*53
1491415620.54,33760,14.81,73320.0,-2.37,-3.63,-3.67,0,*53
1491415621.78,33761,14.81,73322.3,-2.35,-3.59,-3.71,0,*5E
1491415623.05,33762,14.81,73320.0,-2.33,-3.51,-3.63,0,*50
1491415624.29,33763,14.81,73322.8,-2.35,-3.71,-3.71,0,*56
1491415625.54,33764,14.81,73322.0,-2.35,-3.63,-3.71,0,*52
1491415626.78,33765,14.81,73318.5,-2.35,-3.71,-3.71,0,*50
1491415628.01,33766,14.81,73320.0,-2.37,-3.79,-3.79,0,*51
1491415629.24,33767,14.81,73326.5,-2.35,-3.71,-3.75,0,*56
1491415630.45,33768,14.81,73322.8,-2.35,-3.75,-3.75,0,*5D
1491415631.69,33769,14.81,73326.3,-2.35,-3.63,-3.63,0,*5C
1491415632.94,33770,14.81,73324.8,-2.35,-3.63,-3.71,0,*57
1491415634.18,33771,14.81,73324.8,-2.35,-3.63,-3.63,0,*55
1491415635.39,33772,14.81,73322.3,-2.35,-3.75,-3.83,0,*5F
1491415636.6,33773,14.81,73322.5,-2.35,-3.75,-3.75,0,*57
1491415637.83,33774,14.81,73322.0,-2.35,-3.63,-3.75,0,*57
1491415639.04,33775,14.81,73320.8,-2.35,-3.83,-3.75,0,*58
1491415640.25,33776,14.81,73320.0,-2.35,-3.75,-3.75,0,*52
1491415641.49,33777,14.81,73320.8,-2.35,-3.71,-3.71,0,*53
1491415642.75,33778,14.81,73322.3,-2.37,-3.67,-3.67,0,*5E
1491415644.0,33779,14.81,73320.8,-2.35,-3.59,-3.63,0,*54
1491415645.25,33780,14.81,73322.5,-2.35,-3.59,-3.63,0,*52
1491415646.49,33781,14.81,73320.5,-2.35,-3.59,-3.71,0,*50
1491415647.74,33782,14.81,73320.3,-2.35,-3.63,-3.63,0,*59
1491415648.99,33783,14.81,73322.8,-2.35,-3.51,-3.59,0,*50
1491415650.23,33784,14.81,73322.3,-2.35,-3.59,-3.63,0,*56
1491415651.48,33785,14.81,73324.3,-2.37,-3.67,-3.75,0,*5F
1491415652.69,33786,14.81,73324.0,-2.35,-3.75,-3.83,0,*54
1491415653.93,33787,14.81,73320.0,-2.37,-3.75,-3.79,0,*52
1491415655.15,33788,14.81,73322.3,-2.35,-3.71,-3.75,0,*57
1491415656.39,33789,14.81,73320.0,-2.35,-3.71,-3.63,0,*51
1491415657.64,33790,14.81,73316.8,-2.35,-3.63,-3.63,0,*5A
1491415658.91,33791,14.81,73320.8,-2.37,-3.63,-3.67,0,*5D
1491415660.15,33792,14.81,73320.8,-2.35,-3.63,-3.63,0,*58
1491415661.4,33793,14.81,73316.5,-2.35,-3.71,-3.71,0,*59
1491415662.64,33794,14.81,73316.8,-2.35,-3.63,-3.71,0,*5D
1491415663.88,33795,14.81,73316.0,-2.35,-3.63,-3.71,0,*5C
1491415665.12,33796,14.81,73318.3,-2.35,-3.71,-3.71,0,*5C
1491415666.36,33797,14.81,73316.3,-2.37,-3.75,-3.75,0,*5F
1491415667.61,33798,14.81,73320.0,-2.35,-3.59,-3.71,0,*58
1491415668.85,33799,14.81,73318.3,-2.35,-3.59,-3.71,0,*59
1491415670.06,33800,14.81,73320.3,-2.35,-3.75,-3.83,0,*55
1491415671.29,33801,14.81,73320.0,-2.37,-3.79,-3.79,0,*5F
1491415672.53,33802,14.81,73318.8,-2.37,-3.75,-3.79,0,*50
1491415673.73,33803,14.81,73318.5,-2.35,-3.83,-3.83,0,*5F
1491415674.94,33804,14.81,73320.5,-2.35,-3.83,-3.87,0,*5C
1491415676.18,33805,14.81,73316.0,-2.37,-3.79,-3.79,0,*5B
1491415677.43,33806,14.81,73320.0,-2.37,-3.67,-3.75,0,*5B
1491415678.66,33807,14.81,73326.5,-2.37,-3.79,-3.79,0,*59
1491415679.89,33808,14.81,73320.5,-2.35,-3.95,-4.01,0,*5E
1491415681.1,33809,14.81,73322.5,-2.35,-3.87,-3.91,0,*52
1491415682.3,33810,14.81,73322.0,-2.35,-3.75,-3.87,0,*50
1491415683.51,33811,14.81,73322.5,-2.35,-3.75,-3.83,0,*55
1491415684.71,33812,14.81,73316.5,-2.35,-3.83,-3.83,0,*5F
1491415685.92,33813,14.81,73322.8,-2.35,-3.75,-3.75,0,*5E
1491415687.13,33814,14.81,73318.8,-2.35,-3.75,-3.83,0,*50
1491415688.36,33815,14.81,73320.0,-2.37,-3.79,-3.75,0,*56
1491415689.6,33816,14.81,73322.0,-2.37,-3.75,-3.75,0,*59
1491415690.83,33817,14.81,73318.0,-2.35,-3.71,-3.75,0,*5E
1491415692.06,33818,14.81,73320.5,-2.37,-3.75,-3.75,0,*57
1491415693.33,33819,14.81,73318.5,-2.37,-3.55,-3.67,0,*57
1491415694.6,33820,14.81,73320.3,-2.37,-3.63,-3.67,0,*58
1491415695.81,33821,14.81,73320.5,-2.35,-3.83,-3.83,0,*5F
1491415697.07,33822,14.81,73320.8,-2.37,-3.91,-4.01,0,*50
1491415698.28,33823,14.81,73318.3,-2.35,-3.75,-3.75,0,*5D
1491415699.51,33824,14.81,73322.3,-2.37,-3.75,-3.75,0,*58
1491415700.75,33825,14.81,73320.3,-2.37,-3.75,-3.75,0,*59
1491415702.0,33826,14.81,73322.8,-2.35,-3.63,-3.63,0,*58
1491415703.27,33827,14.81,73320.3,-2.37,-3.63,-3.67,0,*5F
1491415704.54,33828,14.81,73320.3,-2.37,-3.63,-3.67,0,*50
1491415705.79,33829,14.81,73320.3,-2.37,-3.67,-3.75,0,*56
1491415707.04,33830,14.81,73322.0,-2.37,-3.67,-3.75,0,*5E
1491415708.29,33831,14.81,73320.5,-2.35,-3.63,-3.63,0,*5E
1491415709.52,33832,14.81,73322.8,-2.37,-3.75,-3.79,0,*53
1491415710.76,33833,14.81,73322.5,-2.37,-3.79,-3.87,0,*5F
1491415711.99,33834,14.81,73320.0,-2.37,-3.87,-3.91,0,*5E
1491415713.19,33835,14.81,73316.0,-2.35,-3.83,-3.83,0,*5A
1491415714.42,33836,14.81,73318.3,-2.37,-3.79,-3.87,0,*5A